Regional Weather Roundup
Issued by NWS Sioux Falls, SD

Home | Current Version | Previous Version | Text Only | Print | Product List | Glossary On
Versions: 1 2 3 4 5 6 7 8 9 10 11 12 13 14 15 16 17 18 19 20 21 22 23 24 25 26 27 28 29 30 31 32 33 34 35 36 37 38 39 40 41 42 43 44 45 46 47 48 49 50
000
ASUS43 KFSD 242202
RWRFSD

WEATHER ROUNDUP FOR SE SOUTH DAKOTA/SW MINNESOTA/NW IOWA
NATIONAL WEATHER SERVICE SIOUX FALLS SD
500 PM CDT SUN SEP 24 2017

NOTE: "FAIR" INDICATES FEW OR NO CLOUDS BELOW 12,000 FEET WITH NO
SIGNIFICANT WEATHER AND OR OBSTRUCTIONS TO VISIBILITY.


SDZ038>040-050-052>070-242300-
SOUTHEAST SOUTH DAKOTA

CITY           SKY/WX    TMP DP  RH WIND       PRES   REMARKS
BROOKINGS      CLOUDY    58  55  90 NW15      29.93R
CHAMBERLAIN    CLOUDY    57  53  86 N15       29.99S
HURON          CLOUDY    56  53  90 NW12      29.96R
MADISON        CLOUDY    55  55 100 NW15      29.93F
MITCHELL       CLOUDY    57  53  86 NW12      29.96S
SIOUX FALLS    CLOUDY    62  58  86 NW9       29.93R
WINNER         CLOUDY    56  49  77 NW14      30.00S
YANKTON        LGT RAIN  58  56  93 W9        29.96R
$$

MNZ071-072-080-081-089-090-097-098-242300-
SOUTHWEST MINNESOTA

CITY           SKY/WX    TMP DP  RH WIND       PRES   REMARKS
FAIRMONT       CLOUDY    87  62  43 S18       29.86S
JACKSON        CLOUDY    73  63  68 W16G22    29.90R
LUVERNE        MOSUNNY   68  59  73 W12       29.91R
MARSHALL       CLOUDY    73  64  73 W10       29.88R
MONTEVIDEO     CLOUDY    72  68  88 NW7       29.86S
PIPESTONE      MOSUNNY   68  61  77 NW12G18   29.92R
REDWOOD FALLS  PTSUNNY   74  65  73 W15       29.86R
TRACY          CLOUDY    74  66  77 W7        29.89R
WORTHINGTON    CLOUDY    70  66  87 SW3       29.91R
$$

IAZ001>003-012>014-020>022-031-032-NEZ013-014-SDZ071-242300-
NORTHWEST IOWA

CITY           SKY/WX    TMP DP  RH WIND       PRES   REMARKS
CHEROKEE       PTSUNNY   77  61  57 SW8       29.88F
DENISON        MOSUNNY   73  66  78 CALM      29.90F
ESTHERVILLE    PTSUNNY   84  63  49 S10       29.86S
LE MARS        CLOUDY    72  64  78 NW12      29.90R
ORANGE CITY    PTSUNNY   72  70  94 NW15      29.90S
SHELDON        PTSUNNY   73  66  78 W8        29.89R
SIOUX CITY     CLOUDY    70  64  81 NW12      29.89R
SPENCER        PTSUNNY   76  67  73 W8        29.89S
STORM LAKE     CLOUDY    75  64  69 SW9       29.90S
$$

ABBREVIATIONS USED IN REMARKS
   TC - TEMPERATURE IN CELSIUS
  WCI - WIND CHILL INDEX
   HX - HEAT INDEX
  VSB - VISIBILITY





USA.gov is the U.S. government's official web portal to all federal, state and local government web resources and services.